Date String (YYYY-MM-DD hh:mm:ss) UTC,Instrument flags,absolute air pressure of the measurement (hPa),sample flow rate (lpm),inlet stack bypass flow (lpm),air temperature of the measurement (°C),ambient temperature measured by the external sensor (°C),aerosol sample conditioner tube jacket temperature (°C),OPC LED temperature (°C),internal box temperature (°C),relative humidity of the measurement (%),span deviation,mass concentration of particles derived from Lorenz-Mie calculation of OPC scattering (μg/m³),mass concentration of particles derived from Lorenz-Mie calculation of OPC scattering (μg/m³),mass concentration of particles derived from Lorenz-Mie calculation of OPC scattering (μg/m³)
DateTimeUTC,F1_M11,P_M11,Q1_M11,Q2_M11,T1_M11,T2_M11,T3_M11,T4_M11,T5_M11,U1_M11,ZSPAN_M11,X2_M11,X0_M11,X1_M11
2023-11-11 22:00:00,SystemResetWarning,0830.3,5.01,000.00,027.6,026.5,000.0,035.9,028.9,5.7,0000.0,0002.69,0004.57,0002.06
2023-11-11 22:01:00,SystemResetWarning,0830.3,5.01,000.00,027.6,026.4,000.0,035.9,028.9,5.7,0000.0,0002.74,0004.84,0002.06
2023-11-11 22:02:00,SystemResetWarning,0830.3,5.00,000.00,027.6,026.4,000.0,035.9,028.9,5.7,0000.0,0002.73,0004.77,0002.06
2023-11-11 22:03:00,SystemResetWarning,0830.3,4.99,000.00,027.6,026.4,000.0,035.9,028.9,5.7,0000.0,0002.67,0004.62,0002.03
2023-11-11 22:04:00,SystemResetWarning,0830.3,5.00,000.00,027.6,026.4,000.0,035.9,028.9,5.7,0000.0,0002.70,0004.80,0002.03
2023-11-11 22:05:00,SystemResetWarning,0830.3,5.00,000.00,027.6,026.4,000.0,035.9,028.9,5.7,0000.0,0002.71,0004.91,0002.01
2023-11-11 22:06:00,SystemResetWarning,0830.2,5.00,000.00,027.6,026.4,000.0,035.9,028.9,5.7,0000.0,0002.75,0004.90,0002.01
2023-11-11 22:07:00,SystemResetWarning,0830.3,5.00,000.00,027.5,026.4,000.0,035.9,028.9,5.8,0000.0,0002.80,0004.98,0002.02
2023-11-11 22:08:00,SystemResetWarning,0830.3,5.01,000.00,027.5,026.4,000.0,035.9,028.9,5.9,0000.0,0002.80,0004.99,0002.02
2023-11-11 22:09:00,SystemResetWarning,0830.3,5.01,000.00,027.5,026.4,000.0,035.9,028.9,5.9,0000.0,0002.85,0005.14,0002.03
2023-11-11 22:10:00,SystemResetWarning,0830.3,5.01,000.00,027.5,026.4,000.0,035.9,028.9,5.9,0000.0,0002.85,0004.97,0002.04
2023-11-11 22:11:00,SystemResetWarning,0830.3,5.01,000.00,027.5,026.4,000.0,035.9,028.9,5.9,0000.0,0002.81,0004.80,0002.05
2023-11-11 22:12:00,SystemResetWarning,0830.3,5.00,000.00,027.5,026.3,000.0,035.9,028.9,5.7,0000.0,0002.81,0004.64,0002.06
2023-11-11 22:13:00,SystemResetWarning,0830.3,4.99,000.00,027.5,026.3,000.0,035.9,028.9,5.8,0000.0,0002.83,0004.63,0002.06
2023-11-11 22:14:00,SystemResetWarning,0830.4,4.99,000.00,027.5,026.3,000.0,035.9,028.9,5.8,0000.0,0002.89,0004.82,0002.07
2023-11-11 22:15:00,SystemResetWarning,0830.3,5.00,000.00,027.5,026.3,000.0,035.9,028.9,5.9,0000.0,0002.93,0004.81,0002.08
2023-11-11 22:16:00,SystemResetWarning,0830.3,5.01,000.00,027.5,026.3,000.0,035.9,028.8,5.9,0000.0,0002.90,0004.69,0002.08
2023-11-11 22:17:00,SystemResetWarning,0830.3,5.01,000.00,027.5,026.3,000.0,035.9,028.8,5.9,0000.0,0002.92,0004.74,0002.08
2023-11-11 22:18:00,SystemResetWarning,0830.3,5.00,000.00,027.5,026.3,000.0,035.9,028.8,5.9,0000.0,0002.88,0004.60,0002.08
2023-11-11 22:19:00,SystemResetWarning,0830.3,4.99,000.00,027.5,026.4,000.0,035.9,028.9,5.9,0000.0,0002.88,0004.60,0002.08
2023-11-11 22:20:00,SystemResetWarning,0830.4,4.99,000.00,027.5,026.4,000.0,035.9,028.9,5.9,0000.0,0002.86,0004.53,0002.07
2023-11-11 22:21:00,SystemResetWarning,0830.4,5.00,000.00,027.5,026.4,000.0,035.9,028.9,6.0,0000.0,0002.85,0004.59,0002.06
2023-11-11 22:22:00,SystemResetWarning,0830.4,5.00,000.00,027.5,026.4,000.0,035.9,028.9,6.0,0000.0,0002.84,0004.59,0002.06
2023-11-11 22:23:00,SystemResetWarning,0830.4,5.00,000.00,027.5,026.4,000.0,035.9,028.9,6.0,0000.0,0002.83,0004.55,0002.06
2023-11-11 22:24:00,SystemResetWarning,0830.3,5.00,000.00,027.5,026.4,000.0,035.9,028.9,5.8,0000.0,0002.79,0004.46,0002.06
2023-11-11 22:25:00,SystemResetWarning,0830.3,5.00,000.00,027.5,026.4,000.0,035.9,028.9,5.8,0000.0,0002.73,0004.31,0002.06
2023-11-11 22:26:00,SystemResetWarning,0830.4,5.00,000.00,027.5,026.4,000.0,035.9,028.9,5.9,0000.0,0002.64,0004.10,0002.06
2023-11-11 22:27:00,SystemResetWarning,0830.4,5.00,000.00,027.5,026.4,000.0,035.9,028.9,5.9,0000.0,0002.66,0004.21,0002.05
2023-11-11 22:28:00,SystemResetWarning,0830.5,5.00,000.00,027.5,026.4,000.0,035.9,028.9,5.9,0000.0,0002.63,0004.04,0002.06
2023-11-11 22:29:00,SystemResetWarning,0830.5,5.00,000.00,027.5,026.5,000.0,035.9,028.9,5.9,0000.0,0002.58,0003.94,0002.04
2023-11-11 22:30:00,SystemResetWarning,0830.4,5.00,000.00,027.5,026.5,000.0,035.9,028.9,5.9,0000.0,0002.54,0004.66,0002.03
2023-11-11 22:31:00,SystemResetWarning,0830.4,5.00,000.00,027.6,026.5,000.0,035.9,029.0,5.9,0000.0,0002.51,0005.23,0002.04
2023-11-11 22:32:00,SystemResetWarning,0830.4,5.00,000.00,027.6,026.5,000.0,035.9,029.0,5.9,0000.0,0002.50,0005.15,0002.06
2023-11-11 22:33:00,SystemResetWarning,0830.6,5.00,000.00,027.6,026.6,000.0,035.9,029.0,5.9,0000.0,0002.50,0005.13,0002.06
2023-11-11 22:34:00,SystemResetWarning,0830.4,4.99,000.00,027.6,026.6,000.0,035.9,029.0,5.9,0000.0,0002.48,0005.05,0002.05
2023-11-11 22:35:00,SystemResetWarning,0830.5,4.99,000.00,027.6,026.6,000.0,035.9,029.0,5.9,0000.0,0002.52,0005.23,0002.04
2023-11-11 22:36:00,SystemResetWarning,0830.5,5.01,000.00,027.6,026.6,000.0,035.9,029.0,5.7,0000.0,0002.56,0005.69,0002.04
2023-11-11 22:37:00,SystemResetWarning,0830.4,5.00,000.00,027.6,026.6,000.0,035.9,029.0,5.8,0000.0,0002.58,0005.99,0002.03
2023-11-11 22:38:00,SystemResetWarning,0830.4,5.00,000.00,027.6,026.6,000.0,035.9,029.0,5.7,0000.0,0002.60,0005.96,0002.03
2023-11-11 22:39:00,SystemResetWarning,0830.5,5.00,000.00,027.6,026.6,000.0,035.9,029.0,5.7,0000.0,0002.62,0006.35,0002.01
2023-11-11 22:40:00,SystemResetWarning,0830.6,5.00,000.00,027.6,026.6,000.0,035.9,028.9,5.8,0000.0,0002.67,0007.42,0002.02
2023-11-11 22:41:00,SystemResetWarning,0830.5,5.00,000.00,027.6,026.6,000.0,035.9,029.0,5.8,0000.0,0002.73,0007.22,0002.03
2023-11-11 22:42:00,SystemResetWarning,0830.6,5.00,000.00,027.6,026.6,000.0,035.9,029.0,5.8,0000.0,0002.79,0006.57,0002.03
2023-11-11 22:43:00,SystemResetWarning,0830.6,5.00,000.00,027.6,026.6,000.0,035.9,029.0,5.8,0000.0,0002.79,0006.58,0002.02
2023-11-11 22:44:00,SystemResetWarning,0830.6,5.00,000.00,027.6,026.6,000.0,036.0,029.1,5.8,0000.0,0002.77,0006.55,0002.01
2023-11-11 22:45:00,SystemResetWarning,0830.6,5.00,000.00,027.6,026.6,000.0,036.0,029.0,5.8,0000.0,0002.79,0006.60,0002.01
2023-11-11 22:46:00,SystemResetWarning,0830.5,5.00,000.00,027.6,026.6,000.0,036.0,029.1,5.9,0000.0,0002.75,0006.47,0002.00
2023-11-11 22:47:00,SystemResetWarning,0830.6,5.00,000.00,027.6,026.6,000.0,036.0,029.1,5.9,0000.0,0002.79,0006.34,0002.01
2023-11-11 22:48:00,SystemResetWarning,0830.6,5.00,000.00,027.7,026.6,000.0,036.0,029.1,6.0,0000.0,0002.83,0006.10,0002.01
2023-11-11 22:49:00,SystemResetWarning,0830.6,5.00,000.00,027.7,026.6,000.0,036.0,029.1,6.0,0000.0,0002.82,0006.12,0002.01
2023-11-11 22:50:00,SystemResetWarning,0830.6,5.00,000.00,027.7,026.7,000.0,036.0,029.1,5.9,0000.0,0002.80,0005.81,0002.01
2023-11-11 22:51:00,SystemResetWarning,0830.6,5.00,000.00,027.7,026.7,000.0,036.0,029.1,5.9,0000.0,0002.77,0004.75,0002.02
2023-11-11 22:52:00,SystemResetWarning,0830.6,5.00,000.00,027.7,026.7,000.0,036.0,029.2,5.9,0000.0,0002.75,0004.25,0002.01
2023-11-11 22:53:00,SystemResetWarning,0830.6,5.00,000.00,027.7,026.7,000.0,036.0,029.1,5.8,0000.0,0002.72,0004.17,0002.03
2023-11-11 22:54:00,SystemResetWarning,0830.6,5.01,000.00,027.7,026.7,000.0,036.0,029.1,5.8,0000.0,0002.72,0004.20,0002.03
2023-11-11 22:55:00,SystemResetWarning,0830.6,5.00,000.00,027.7,026.8,000.0,036.0,029.1,5.8,0000.0,0002.73,0004.34,0002.03
2023-11-11 22:56:00,SystemResetWarning,0830.6,5.01,000.00,027.7,026.8,000.0,036.0,029.2,5.8,0000.0,0002.73,0004.42,0002.03
2023-11-11 22:57:00,SystemResetWarning,0830.7,5.00,000.00,027.8,026.8,000.0,036.0,029.2,5.7,0000.0,0002.72,0005.17,0002.05
2023-11-11 22:58:00,SystemResetWarning,0830.7,5.00,000.00,027.8,026.9,000.0,036.0,029.2,5.8,0000.0,0002.65,0005.47,0002.04
2023-11-11 22:59:00,SystemResetWarning,0830.7,5.01,000.00,027.8,026.9,000.0,036.0,029.3,5.8,0000.0,0002.62,0005.35,0002.04
